Regional Weather Roundup
Issued by NWS

Home | Current Version | Previous Version | Graphics & Text | Print | Product List | Glossary Off
Versions: 1 2 3 4 5 6 7 8 9 10 11 12 13 14 15 16 17 18 19 20 21 22 23 24 25 26 27 28 29 30 31 32 33 34 35 36 37 38 39 40 41 42 43 44 45 46 47 48 49 50

000
ASUS43 KMKX 182121
RWRWI

WISCONSIN REGIONAL WEATHER ROUNDUP
NATIONAL WEATHER SERVICE MILWAUKEE/SULLIVAN WI
400 PM CDT WED OCT 18 2017

NOTE: "FAIR" INDICATES FEW OR NO CLOUDS BELOW 12,000 FEET WITH NO
SIGNIFICANT WEATHER AND/OR OBSTRUCTIONS TO VISIBILITY.

WIZ001-002-006>008-014>016-023>028-182200-
NORTHWEST WISCONSIN

CITY           SKY/WX    TMP DP  RH WIND       PRES   REMARKS
SUPERIOR ARPT  SUNNY     69  23  17 W22G31    29.70R
ASHLAND        SUNNY     69  43  38 SW17G26   29.69R
HAYWARD        SUNNY     67  42  40 SW13G21   29.75S
SIREN          SUNNY     69  38  33 W14G21    29.78R
CUMBERLAND     SUNNY     64  43  45 SW16      29.79F
RICE LAKE      SUNNY     68  43  39 SW12G18   29.81F
CHETEK         SUNNY     68  47  46 SW10      29.80F
LADYSMITH      PTSUNNY   68  48  47 SW14G23   29.81S
EAU CLAIRE     MOSUNNY   71  48  43 W13G26    29.82R
MENOMONIE      CLOUDY    69  47  43 SW10      29.83S
NEW RICHMOND   SUNNY     68  39  34 SW12      29.82F
OSCEOLA        SUNNY     69  42  36 SW9G17    29.83F
$$

WIZ003>005-009-010-017-018-182200-
NORTH CENTRAL WISCONSIN

CITY           SKY/WX    TMP DP  RH WIND       PRES   REMARKS
MANITOWISH WTR PTSUNNY   68  47  46 SW22G32   29.74R
ARBOR VITAE    MOSUNNY   69  49  47 SW15G21   29.74R
WOODRUFF       MOSUNNY   69  49  47 SW15G21   29.74R
RHINELANDER    CLOUDY    69  47  45 SW14G23   29.76F
EAGLE RIVER    MOSUNNY   68  43  40 SW16G22   29.73S
LAND O LAKES   MOSUNNY   69  43  39 SW9G18    29.74R
PHILLIPS       SUNNY     67  48  52 SW14G28   29.77R
TOMAHAWK       PTSUNNY   68  46  44 SW7       29.78R
MEDFORD        CLOUDY    69  46  44 SW14G24   29.81R
MERRILL        CLOUDY    70  48  45 SW14G24   29.79S
$$

WIZ029-030-035-036-043>047-182200-
CENTRAL WISCONSIN

CITY           SKY/WX    TMP DP  RH WIND       PRES   REMARKS
WAUSAU         LGT RAIN  70  46  42 SW16G29   29.78F
MOSINEE        MOSUNNY   72  46  40 S16G23    29.82F
MARSHFIELD     MOSUNNY   71  44  37 SW21G30   29.81F
STEVENS POINT  SUNNY     70  46  41 S21G26    29.83F
WAUPACA        SUNNY     73  45  36 S18G26    29.86F
WAUTOMA        SUNNY     73  47  39 SW18      29.87F
WISC RAPIDS    SUNNY     73  49  42 SW15G22   29.85F
CAMP DOUGLAS   PTSUNNY   73  48  40 SW15G21   29.86F
$$

WIZ011>013-019>022-031-037>040-048>050-182200-
NORTHEAST WISCONSIN

CITY           SKY/WX    TMP DP  RH WIND       PRES   REMARKS
ANTIGO         CLOUDY    67  47  50 SW17G26   29.81S
SHAWANO        CLOUDY    74  45  36 SW9G22    29.83F
OCONTO         SUNNY     71  48  43 SW14G20   29.83S
STURGEON BAY   SUNNY     64  51  62 S14G23    29.86F
GREEN BAY      SUNNY     70  49  47 S13G25    29.86F
MANITOWOC      SUNNY     62  50  64 S17G24    29.90F
APPLETON       MOSUNNY   70  39  32 SW23G30   29.86F
CLINTONVILLE   CLOUDY    72  45  37 SW16G30   29.83F
OSHKOSH        SUNNY     71  47  42 S22G31    29.88F
$$

WIZ032>034-041-042-053>061-182200-
SOUTHWEST WISCONSIN

CITY           SKY/WX    TMP DP  RH WIND       PRES   REMARKS
LA CROSSE      PTSUNNY   75  47  36 SW17      29.85R
SPARTA         MOSUNNY   71  48  44 S14       29.86S
VIROQUA        PTSUNNY   70  48  45 S16       29.89F
BOSCOBEL       SUNNY     76  45  33 S14G23    29.92R
PRAIRIE DU CHI SUNNY     73  43  33 S9        29.90F
PLATTEVILLE    SUNNY     72  48  42 S17G23    29.95S
$$

WIZ056-057-062-063-064-067-068-182200-
SOUTH CENTRAL WISCONSIN

CITY           SKY/WX    TMP DP  RH WIND       PRES   REMARKS
REEDSBURG      SUNNY     70  47  43 SW17G24   29.92R
BARABOO/DELLS  SUNNY     70  44  39 S17       29.91R
LONE ROCK      SUNNY     72  46  39 SW17G26   29.93R
MINERAL POINT  SUNNY     72  43  35 SW22      29.94S
MADISON        MOSUNNY   71  44  37 S17G24    29.93F
MIDDLETON      SUNNY     72  44  36 S16G24    29.93F
WATERTOWN      SUNNY     70  43  37 SW21      29.93F
MONROE         SUNNY     70  41  35 S18G26    29.95F
JANESVILLE     SUNNY     73  39  29 S22       29.96F
$$

WIZ051-052-058>065-066-070>072-182200-
SOUTHEAST WISCONSIN

CITY           SKY/WX    TMP DP  RH WIND       PRES   REMARKS
MILWAUKEE      MOSUNNY   72  43  35 SW28G33   29.97F
WAUKESHA       SUNNY     70  39  32 S18G26    29.97F
MILWAUKEE/TIMM SUNNY     72  37  28 S21       29.96F
RACINE         SUNNY     71  43  36 S17G26    29.99F
BURLINGTON     SUNNY     72  44  36 S16G26    29.98S
KENOSHA        SUNNY     71  42  35 SW18G28   29.99F
FOND DU LAC    SUNNY     72  42  34 S16G29    29.89F
SHEBOYGAN      SUNNY     71  45  39 S18G33    29.91F
WEST BEND      SUNNY     70  37  30 SW16G23   29.93F
JUNEAU         SUNNY     70  43  37 S22G30    29.94F
$$

LSZ147-162-182200-
LAKE SUPERIOR

STATION/POSITION TIME  TEMP    WIND        PRES    WAVE
                       AIR SEA DIR/SP/G            HT/PER
                 (UTC) (F)     (DEG/KT/KT) (MB)    (FT/S)
W MID LAKE BUOY  2050   58 53              1002.2F   2/ 5
DEVILS ISLAND    2100   63     230/ 22/ 28 1003.7R
SAXON HARBOR     2030   71     220/ 11/ 21 1004.7S
$$

LMZ867-665-643>646-182200-
LAKE MICHIGAN

STATION/POSITION TIME  TEMP    WIND        PRES    WAVE
                       AIR SEA DIR/SP/G            HT/PER
                 (UTC) (F)     (DEG/KT/KT) (MB)    (FT/S)
S GREEN BAY BUOY 2100   64 58  200/ 17/ 19 1010.3
N MID LAKE BUOY  2050   61 59  190/ 29/ 35 1010.1F  10/ 8
NORTHPORT PIER   2052   62     170/ 14/ 25 1010.2F
KEWAUNEE LAKESHO 2100   58     180/ 18/ 22 1011.4
SHEBOYGAN LAKESH 2100   58     180/ 24/ 26 1012.8F
PORT WASHINGTON  2040   71     210/ 12/ 20 1014.6F
ATWATER BUOY     2009   66 53  190/ 17/ 21 1014.8F
MILWAUKEE LAKESH 2100   69     210/ 22/ 25   N/A
S MID LAKE BUOY  2050   63 61  170/ 21/ 23 1016.5F   5/ 5
KENOSHA   LAKESH 2100   71     200/ 14/ 22 1014.9
$$

TC  - TEMPERATURE IN CELSIUS
VSB - VISIBILITY IN STATUTE MILES
WCI - WIND CHILL INDEX
HX  - HEAT INDEX





USA.gov is the U.S. government's official web portal to all federal, state and local government web resources and services.